Wiscasset, ME

4:26 AM EST on February 10, 2016 (GMT -0500)
Wiscasset

Weather History for KIWI - May, 2014

Change the Weather History Date:

Tuesday, May 27, 2014

  Actual Average Record
Temperature  
Mean Temperature 54 °F -  
Max Temperature 61 °F 63 °F 81 °F (2006)
Min Temperature 46 °F 42 °F 34 °F (1997)
Degree Days  
Heating Degree Days 12    
Growing Degree Days 4 (Base 50)    
Moisture  
Dew Point 48 °F    
Average Humidity 94    
Maximum Humidity 97    
Minimum Humidity 89    
Precipitation  
Precipitation 0.96 in - - ()
Sea Level Pressure  
Sea Level Pressure 29.97 in    
Wind  
Wind Speed 3 mph (ESE)    
Max Wind Speed 9 mph    
Max Gust Speed -    
Visibility 6 miles    
Events Rain , Thunderstorm    
Averages and records for this station are not official NWS values.
T = Trace of Precipitation, MM = Missing Value Source: NWS Daily Summary

Daily Weather History Graph

Daily Weather History Graph

Search for Another Location

Airport or City:

Trip Planner

Search our weather history database for the weather conditions in past years. The results will help you decide how hot, cold, wet, or windy it might be!

Date:

Astronomy

May. 27, 2014 Rise Set
Actual Time 5:02 AM EDT 8:10 PM EDT
Civil Twilight 4:27 AM EDT 8:45 PM EDT
Nautical Twilight 3:42 AM EDT 9:30 PM EDT
Astronomical Twilight 2:48 AM EDT 10:24 PM EDT
Moon 4:26 AM EDT (5/27) 7:06 PM EDT (5/27)
Length of Visible Light 16h 17m
Length of Day
15h 08m
Waning Crescent, 1% of the Moon is Illuminated
May 27
Waning Crescent
May 28
New
Jun 5
First Quarter
Jun 13
Full
Jun 19
Last Quarter

Hourly Weather History & Observations

Time (EDT) Temp. Windchill Dew Point Humidity Pressure Visibility Wind Dir Wind Speed Gust Speed Precip Events Conditions
12:53 AM 61.0 °F - 59.0 °F 93% 29.81 in 10.0 mi Calm Calm - 0.02 in Rain Light Rain
1:53 AM 60.1 °F - 57.9 °F 93% 29.80 in 10.0 mi Calm Calm - 0.00 in   Scattered Clouds
2:53 AM 59.0 °F - 57.0 °F 93% 29.82 in 9.0 mi Calm Calm - N/A   Mostly Cloudy
3:53 AM 59.0 °F - 57.0 °F 93% 29.82 in 10.0 mi ENE 3.5 mph - 0.00 in Rain Light Rain
4:53 AM 57.9 °F - 57.0 °F 97% 29.85 in 8.0 mi ENE 3.5 mph - 0.01 in Rain Light Rain
5:07 AM 57.9 °F - 57.0 °F 97% 29.85 in 9.0 mi ENE 3.5 mph - 0.01 in Rain Light Rain
5:46 AM 57.0 °F - 55.9 °F 96% 29.87 in 7.0 mi East 4.6 mph - 0.01 in Rain Light Rain
5:53 AM 57.0 °F - 55.9 °F 96% 29.86 in 5.0 mi ESE 5.8 mph - 0.02 in Rain Light Rain
6:14 AM 57.0 °F - 55.0 °F 93% 29.88 in 9.0 mi Variable 4.6 mph - 0.01 in Rain Light Rain
6:53 AM 55.9 °F - 53.1 °F 90% 29.91 in 9.0 mi East 8.1 mph - 0.03 in Rain Light Rain
7:11 AM 55.0 °F - 53.1 °F 93% 29.91 in 10.0 mi ENE 6.9 mph - 0.00 in Rain Light Rain
7:32 AM 55.0 °F - 53.1 °F 93% 29.91 in 6.0 mi East 5.8 mph - 0.03 in Rain Light Rain
7:53 AM 55.0 °F - 52.0 °F 89% 29.92 in 10.0 mi East 4.6 mph - 0.03 in Rain Light Rain
8:53 AM 51.1 °F - 50.0 °F 96% 29.95 in 8.0 mi SE 4.6 mph - 0.03 in   Overcast
9:38 AM 48.9 °F - 48.0 °F 97% 29.97 in 1.8 mi SSE 9.2 mph - N/A   Overcast
9:48 AM 48.2 °F - 46.4 °F 93% 29.97 in 1.2 mi ESE 5.8 mph - N/A   Overcast
9:53 AM 48.9 °F - 46.9 °F 93% 29.97 in 1.2 mi ESE 6.9 mph - N/A   Overcast
10:22 AM 48.9 °F - 46.9 °F 93% 29.97 in 1.5 mi ESE 6.9 mph - N/A   Overcast
10:34 AM 48.9 °F - 46.9 °F 93% 29.97 in 2.5 mi Variable 5.8 mph - N/A   Overcast
10:45 AM 48.9 °F - 46.9 °F 93% 29.98 in 3.0 mi East 5.8 mph - N/A   Overcast
10:53 AM 48.9 °F - 46.9 °F 93% 29.99 in 2.5 mi Variable 5.8 mph - N/A   Overcast
11:15 AM 48.9 °F - 46.9 °F 93% 29.99 in 1.8 mi Variable 3.5 mph - N/A   Overcast
11:28 AM 48.0 °F - 46.9 °F 96% 29.99 in 2.0 mi SE 6.9 mph - N/A   Overcast
11:39 AM 48.9 °F - 46.9 °F 93% 29.99 in 4.0 mi SE 6.9 mph - N/A   Overcast
11:53 AM 48.0 °F - 46.0 °F 93% 30.00 in 8.0 mi SE 5.8 mph - N/A   Overcast
12:05 PM 48.0 °F - 46.0 °F 93% 30.00 in 10.0 mi ESE 4.6 mph - N/A   Overcast
12:23 PM 48.0 °F - 46.0 °F 93% 30.00 in 6.0 mi SSE 3.5 mph - N/A   Overcast
12:53 PM 48.0 °F - 46.0 °F 93% 30.00 in 4.0 mi ESE 5.8 mph - N/A   Overcast
1:04 PM 46.9 °F - 46.0 °F 97% 29.99 in 2.5 mi SE 5.8 mph - N/A   Overcast
1:21 PM 46.9 °F - 45.0 °F 93% 29.99 in 4.0 mi SE 5.8 mph - 0.00 in Rain Light Rain
1:53 PM 46.9 °F - 45.0 °F 93% 30.00 in 6.0 mi ESE 4.6 mph - 0.02 in Rain Light Rain
2:53 PM 46.0 °F 42.5 °F 44.1 °F 93% 30.00 in 5.0 mi Variable 6.9 mph - 0.09 in Rain Light Rain
3:53 PM 46.0 °F 43.9 °F 43.0 °F 89% 29.99 in 4.0 mi East 4.6 mph - 0.10 in Rain Light Rain
4:53 PM 46.0 °F 44.8 °F 44.1 °F 93% 29.99 in 10.0 mi ESE 3.5 mph - 0.02 in Rain Light Rain
5:53 PM 46.0 °F - 44.1 °F 93% 29.99 in 8.0 mi Calm Calm - 0.03 in Rain Light Rain
6:26 PM 46.0 °F 44.8 °F 44.1 °F 93% 30.00 in 2.0 mi Variable 3.5 mph - 0.05 in Rain Rain
6:33 PM 46.0 °F - 44.1 °F 93% 30.01 in 3.0 mi Calm Calm - 0.06 in Rain , Thunderstorm Light Rain
6:48 PM 46.4 °F - 44.6 °F 93% 29.99 in 2.5 mi Calm Calm - 0.10 in Rain Rain
6:53 PM 46.0 °F - 45.0 °F 96% 29.99 in 3.0 mi Calm Calm - 0.11 in Rain Rain
7:11 PM 46.0 °F - 44.1 °F 93% 30.01 in 2.0 mi Calm Calm - 0.05 in Rain Rain
7:25 PM 46.0 °F - 45.0 °F 96% 30.01 in 1.8 mi Calm Calm - 0.10 in Rain Rain
7:31 PM 46.0 °F - 45.0 °F 96% 30.01 in 2.5 mi Calm Calm - 0.11 in Rain Rain
7:39 PM 46.0 °F 43.9 °F 45.0 °F 96% 29.99 in 3.0 mi East 4.6 mph - 0.14 in Rain Rain
7:53 PM 46.0 °F 43.1 °F 44.1 °F 93% 29.99 in 4.0 mi ENE 5.8 mph - 0.18 in Rain Rain
8:10 PM 46.0 °F - 45.0 °F 96% 30.00 in 10.0 mi Calm Calm - 0.01 in Rain Light Rain
8:35 PM 46.0 °F - 45.0 °F 96% 30.03 in 10.0 mi Calm Calm - 0.01 in   Overcast
8:53 PM 46.9 °F - 44.1 °F 90% 30.02 in 10.0 mi Calm Calm - 0.01 in Rain Light Rain
9:07 PM 46.9 °F - 44.1 °F 90% 30.02 in 7.0 mi NE 4.6 mph - 0.03 in Rain Light Rain
9:53 PM 46.0 °F 44.8 °F 45.0 °F 96% 30.04 in 10.0 mi Variable 3.5 mph - 0.08 in Rain Light Rain
10:12 PM 46.0 °F - 45.0 °F 96% 30.05 in 6.0 mi Calm Calm - 0.01 in Rain Light Rain
10:53 PM 46.0 °F - 45.0 °F 96% 30.05 in 3.0 mi Calm Calm - 0.11 in Rain Rain
11:09 PM 46.0 °F - 45.0 °F 96% 30.04 in 5.0 mi Calm Calm - 0.03 in Rain Light Rain
11:53 PM 46.9 °F - 45.0 °F 93% 30.05 in 10.0 mi NE 3.5 mph - 0.07 in   Overcast